Oxford, NC

10:38 PM EST on November 11, 2019 (GMT -0500)
Henderson-Oxford

Weather History for KHNZ - October, 2019

Change the Weather History Date:

Wednesday, October 23, 2019

  Actual Average (KTDF) Record (KTDF)
Temperature  
Mean Temperature 53 °F -  
Max Temperature 64 °F 70 °F 87 °F (2001)
Min Temperature 41 °F 42 °F 27 °F (1987)
Degree Days  
Heating Degree Days 12    
Growing Degree Days 3 (Base 50)    
Moisture  
Dew Point 40 °F    
Average Humidity 60    
Maximum Humidity 98    
Minimum Humidity 32    
Precipitation  
Precipitation 0.00 in - - ()
Sea Level Pressure  
Sea Level Pressure 30.13 in    
Wind  
Wind Speed 2 mph (NW)    
Max Wind Speed 12 mph    
Max Gust Speed 18 mph    
Visibility 10 miles    
Events      
Averages and records for this station are not official NWS values.
T = Trace of Precipitation, MM = Missing Value Source: NWS Daily Summary

Daily Weather History Graph

Daily Weather History Graph

Search for Another Location

Airport or City:

Astronomy

Oct. 23, 2019 Rise Set
Actual Time 7:28 AM EDT 6:28 PM EDT
Civil Twilight 7:02 AM EDT 6:54 PM EDT
Nautical Twilight 6:31 AM EDT 7:24 PM EDT
Astronomical Twilight 6:02 AM EDT 7:54 PM EDT
Moon 1:57 AM EDT (10/23) 4:06 PM EDT (10/23)
Length of Visible Light 11h 52m
Length of Day
10h 59m
Waning Crescent, 27% of the Moon is Illuminated
Oct 23
Waning Crescent
Oct 27
New
Nov 4
First Quarter
Nov 12
Full
Nov 19
Last Quarter

Hourly Weather History & Observations

Time (EDT) Temp. Dew Point Humidity Pressure Visibility Wind Dir Wind Speed Gust Speed Precip Events Conditions
12:15 AM 55.9 °F 55.4 °F 98% 29.91 in 10.0 mi Calm Calm - N/A   Scattered Clouds
12:35 AM 53.6 °F 53.1 °F 98% 29.91 in 0.8 mi Calm Calm - N/A   Scattered Clouds
1:55 AM 52.7 °F 52.2 °F 98% 29.92 in 1.0 mi Calm Calm - N/A   Mist
3:35 AM 52.5 °F 46.8 °F 81% 29.95 in 10.0 mi Calm Calm - N/A   Clear
4:15 AM 51.1 °F 45.9 °F 82% 29.96 in 10.0 mi Calm Calm - N/A   Clear
4:35 AM 51.4 °F 45.0 °F 79% 29.97 in 10.0 mi WNW 6.9 mph - N/A   Clear
4:55 AM 51.1 °F 44.6 °F 78% 29.98 in 10.0 mi NW 4.6 mph - N/A   Clear
9:15 AM 54.7 °F 41.5 °F 61% 30.11 in 10.0 mi Calm Calm - N/A   Clear
9:35 AM 56.3 °F 41.7 °F 58% 30.11 in 10.0 mi Calm Calm - N/A   Clear
10:15 AM 58.5 °F 41.2 °F 53% 30.12 in 10.0 mi NW 3.5 mph - N/A   Clear
10:35 AM 58.6 °F 39.6 °F 49% 30.12 in 10.0 mi WNW 6.9 mph - N/A   Clear
10:55 AM 59.5 °F 38.3 °F 45% 30.12 in 10.0 mi NNW 9.2 mph - N/A   Clear
11:15 AM 60.6 °F 36.3 °F 40% 30.13 in 10.0 mi NW 10.4 mph 18.4 mph N/A   Clear
11:35 AM 61.0 °F 34.3 °F 37% 30.13 in 10.0 mi WNW 3.5 mph - N/A   Clear
12:35 PM 62.2 °F 32.7 °F 33% 30.13 in 10.0 mi West 11.5 mph - N/A   Clear
12:55 PM 62.6 °F 33.8 °F 34% 30.13 in 10.0 mi Calm Calm - N/A   Clear
1:15 PM 63.1 °F 32.7 °F 32% 30.13 in 10.0 mi NW 4.6 mph - N/A   Clear
1:35 PM 62.8 °F 32.0 °F 32% 30.12 in 10.0 mi Calm Calm - N/A   Clear
2:15 PM 63.1 °F 34.3 °F 34% 30.12 in 10.0 mi Calm Calm - N/A   Clear
2:35 PM 63.7 °F 34.9 °F 34% 30.12 in 10.0 mi Calm Calm - N/A   Clear
2:55 PM 64.2 °F 36.7 °F 36% 30.12 in 10.0 mi Calm Calm - N/A   Clear
3:15 PM 63.9 °F 36.5 °F 36% 30.12 in 10.0 mi NW 6.9 mph - N/A   Clear
3:35 PM 63.9 °F 35.6 °F 35% 30.12 in 10.0 mi NW 5.8 mph - N/A   Clear
3:55 PM 64.4 °F 36.7 °F 36% 30.12 in 10.0 mi Calm Calm - N/A   Clear
4:15 PM 64.2 °F 35.8 °F 35% 30.13 in 10.0 mi Calm Calm - N/A   Clear
4:35 PM 63.9 °F 34.7 °F 34% 30.13 in 10.0 mi Calm Calm - N/A   Clear
4:55 PM 63.5 °F 35.1 °F 35% 30.14 in 10.0 mi Calm Calm - N/A   Clear
5:15 PM 63.3 °F 35.2 °F 35% 30.15 in 10.0 mi Calm Calm - N/A   Clear
5:35 PM 62.6 °F 35.4 °F 36% 30.15 in 10.0 mi Calm Calm - N/A   Clear
5:55 PM 61.2 °F 35.8 °F 39% 30.16 in 10.0 mi Calm Calm - N/A   Clear
6:15 PM 59.5 °F 37.4 °F 44% 30.17 in 10.0 mi Calm Calm - N/A   Clear
6:35 PM 55.4 °F 40.6 °F 58% 30.17 in 10.0 mi Calm Calm - N/A   Clear
6:55 PM 53.1 °F 43.3 °F 70% 30.18 in 10.0 mi Calm Calm - N/A   Clear
7:15 PM 52.7 °F 40.6 °F 64% 30.19 in 10.0 mi Calm Calm - N/A   Clear
7:35 PM 50.2 °F 41.0 °F 71% 30.19 in 10.0 mi Calm Calm - N/A   Clear
7:55 PM 49.3 °F 40.8 °F 73% 30.20 in 10.0 mi Calm Calm - N/A   Clear
8:15 PM 49.1 °F 42.6 °F 78% 30.21 in 10.0 mi Calm Calm - N/A   Clear
8:35 PM 48.2 °F 40.6 °F 75% 30.21 in 10.0 mi Calm Calm - N/A   Clear
8:55 PM 45.9 °F 42.8 °F 89% 30.21 in 10.0 mi Calm Calm - N/A   Clear
9:15 PM 46.9 °F 42.6 °F 85% 30.22 in 10.0 mi Calm Calm - N/A   Clear
9:35 PM 46.2 °F 41.9 °F 85% 30.22 in 10.0 mi Calm Calm - N/A   Clear
9:55 PM 45.3 °F 41.9 °F 88% 30.23 in 10.0 mi Calm Calm - N/A   Clear
10:55 PM 44.2 °F 40.5 °F 87% 30.24 in 10.0 mi Calm Calm - N/A   Clear
11:15 PM 43.5 °F 42.1 °F 95% 30.24 in 10.0 mi Calm Calm - N/A   Clear
11:35 PM 42.1 °F 40.3 °F 93% 30.24 in 10.0 mi Calm Calm - N/A   Clear
11:55 PM 41.9 °F 40.6 °F 95% 30.24 in 10.0 mi Calm Calm - N/A   Clear